Location: Newark
(39.9581°N, 97.2014°W)
Time: 20:13:12
(UTC+00:00)

ISS - Visible Passes

Search period start: 21 January 2020 00:00
Search period end: 31 January 2020 00:00
Orbit: 415 x 421 km, 51.6° (Epoch: 22 January)

Date Brightness Start Highest point End Pass type
(mag) Time Alt. Az. Time Alt. Az. Time Alt. Az.
21 Jan -3.9 01:07:57 10° SW 01:11:17 74° SE 01:11:35 67° E visible
22 Jan -3.1 00:20:12 10° SSW 00:23:22 40° SE 00:25:52 15° ENE visible
22 Jan -1.2 01:57:18 10° W 01:58:49 20° WNW 01:58:49 20° WNW visible
23 Jan -2.7 01:08:57 10° WSW 01:12:08 40° NNW 01:13:01 32° N visible
24 Jan -3.5 00:20:45 10° WSW 00:24:06 66° NW 00:27:09 12° NE visible
24 Jan -0.8 01:59:11 10° WNW 02:00:05 14° NW 02:00:05 14° NW visible
25 Jan -1.8 01:10:34 10° WNW 01:13:10 20° NNW 01:14:09 18° N visible
26 Jan -2.2 00:22:02 10° W 00:25:00 28° NNW 00:27:57 10° NE visible
27 Jan -1.3 01:12:32 10° NW 01:14:20 14° NNW 01:15:04 13° N visible
28 Jan -1.5 00:23:49 10° WNW 00:26:03 16° NNW 00:28:17 10° NNE visible
29 Jan -1.2 01:14:23 10° NNW 01:15:33 11° N 01:15:51 11° N visible
30 Jan -1.3 00:25:46 10° NNW 00:27:12 12° N 00:28:39 10° NNE visible
